Location: Buena Vista
(37.7110°N, 119.7938°W)
Time: 08:26:15
(UTC+00:00)

DMSP B5D2-2 - Pass Details

Date: 13 June 2024
Orbit: 786 x 804 km, 98.3° (Epoch: 18 July)

Event Time Altitude Azimuth Distance (km) Brightness Sun altitude
Rises 11:57:49 0° 170° (S) 3,295 7.0 -7.3°
Reaches altitude 10° 12:00:08 10° 172° (S) 2,370 6.3 -6.9°
Maximum altitude 12:05:22 75° 257° (WSW) 835 4.1 -6.0°
Drops below altitude 10° 12:10:40 10° 344° (NNW) 2,389 6.8 -5.2°
Sets 12:13:01 0° 346° (NNW) 3,324 7.6 -4.8°
